Flag for Germany Weather past 2 weeks in Rastatt, Baden-Württemberg, Germany

Now
75 °F

Sunny.


Feels Like: 77 °F
Forecast: 61 / 81 °F
Wind: 3 mph from North

Location: Karlsruhe - Baden Wurttemberg

Current Time: Jul 23, 2014 at 12:19:26 AM

Latest Report: Jul 22, 2014 at 6:50 PM


Visibility: 10 mi

Pressure: 29.95 "Hg

Humidity: 69%

Dew point: 64 °F

Location of RastattLocation

Historic Weather in Rastatt — Graph

°F

Rastatt temperature yesterday

Maximum temperature yesterday: 77 °F (at 3:50 PM)
Minimum temperature yesterday: 64 °F (at 2:20 AM)
Average temperature yesterday: 70 °F

Past Weeks' High & Low Weather Summary

 TemperatureHumidityPressure
High93 °F (Jul 19, 5:20 PM)94% (Jul 8, 4:50 AM)30.18 "Hg (Jul 8, 4:50 AM)
Low54 °F (Jul 9, 8:50 PM)24% (Jul 18, 4:20 PM)29.74 "Hg (Jul 10, 4:50 AM)
Average69 °F70%29.95 "Hg
* Reported Jul 7 6:20 PM — Jul 22 6:50 PM, Rastatt, Weather by CustomWeather, © 2014

Note: Actual official high and low records may vary slightly from our data, if they occured in-between our weather recording intervals... More about our weather records

Advertising

Rastatt weather history for previous 24 hours

 ConditionsComfort  
Time TempWeatherWind HumidityBarometerVisibility
6:50 PM
Jul 22
75 °FSunny.3 mph69%29.95 "Hg10 mi
6:20 PM75 °FPartly sunny.5 mph74%29.95 "HgN/A
5:50 PM77 °FScattered showers. Partly sunny.5 mph69%29.95 "HgN/A
5:20 PM75 °FScattered showers. Broken clouds.6 mph74%29.95 "HgN/A
4:50 PM77 °FScattered showers. Broken clouds.6 mph69%29.95 "Hg6 mi
4:20 PM77 °FScattered clouds.6 mph65%29.95 "Hg6 mi
3:50 PM77 °FBroken clouds.9 mph69%29.95 "Hg5 mi
3:20 PM75 °FBroken clouds.7 mph69%29.95 "Hg5 mi
2:50 PM73 °FScattered showers. Broken clouds.8 mph78%29.95 "Hg5 mi
2:20 PM73 °FScattered showers. Partly sunny.9 mph78%29.95 "Hg5 mi
1:50 PM72 °FScattered showers. Broken clouds.9 mph83%29.95 "Hg4 mi
1:20 PM72 °FScattered showers. Broken clouds.8 mph83%29.95 "Hg5 mi
12:50 PM72 °FScattered showers. Partly sunny.9 mph78%29.95 "Hg5 mi
12:20 PM72 °FScattered showers. Partly sunny.8 mph78%29.95 "Hg5 mi
11:50 AM70 °FScattered showers. Broken clouds.9 mph83%29.95 "Hg4 mi
11:20 AM72 °FScattered showers. Partly sunny.10 mph78%29.92 "Hg4 mi
10:50 AM70 °FScattered showers. Partly sunny.12 mph83%29.92 "Hg4 mi
10:20 AM70 °FSprinkles. Partly sunny.8 mph83%29.92 "Hg4 mi
9:50 AM70 °FSprinkles. Broken clouds.8 mph83%29.92 "Hg4 mi
9:20 AM68 °FSprinkles. Partly sunny.9 mph88%29.92 "Hg4 mi
8:50 AM68 °FSprinkles. Fog.8 mph88%29.92 "Hg3 mi
8:20 AM68 °FRain showers. Broken clouds.6 mph88%29.89 "Hg3 mi
7:50 AM66 °FRain showers. Broken clouds.6 mph88%29.89 "Hg3 mi
7:20 AM64 °FSprinkles. Broken clouds.5 mph94%29.89 "Hg3 mi
6:50 AM64 °FRain showers. Broken clouds.5 mph94%29.89 "Hg3 mi
6:20 AM64 °FSprinkles. Fog.5 mph94%29.89 "Hg2 mi
5:59 AM64 °FRain showers. Fog.3 mph94%29.89 "Hg3 mi
5:50 AM64 °FSprinkles. Passing clouds.5 mph88%29.89 "Hg4 mi
5:20 AM64 °FRain showers. Passing clouds.3 mph94%29.89 "Hg4 mi
4:50 AM64 °FPassing clouds.6 mph94%29.89 "HgN/A
2:20 AM64 °FScattered showers. Passing clouds.3 mph94%29.92 "Hg4 mi
Weather by CustomWeather, © 2014

See weather overviewHow to use our weather pages